sat.trackr.live / text

‹ back to catalog

STARLINK-35157

NORAD 65814 · 2025-218Z

PAYLOAD ACTIVE UNKNOWN

§ Identity

Operator
Country
US
Launch date
2025-09-26
Launch site
AFWTR
Launch vehicle
Mass (kg)
RCS (m²)

Purposes: comms

External: N2YO · Heavens-Above · Gunter

§ Orbital elements

Epoch: 2026-05-25T02:35:20.884704Z

Period
95.64 min
Inclination
97.4535°
Eccentricity
0.0001521
Mean motion
15.05638714 rev/d
Perigee alt
548.5 km
Apogee alt
550.6 km
Semi-major
6,927.7 km
B*
1.4576e-3
RAAN
7.9805°
Arg perigee
84.5586°
Mean anomaly
275.5814°
Rev number
3,647

§ Raw data

STARLINK-351571 65814U 25218Z   26145.10788061  .00021029  00000+0  14576-2 0  99992 65814  97.4535   7.9805 0001521  84.5586 275.5814 15.05638714 36475

JSON: /api/v1/satellites/65814 · /tle

For live sub-satellite position, see the globe view (requires WebGL).

§ Visibility from observer

Set your observer location to see the next 7 days of passes ≥ 10°. The values pass through the URL so the page stays shareable.

No JS? Fill the form by hand. The geolocation button needs JavaScript.